• In Deutschland
  • Länderverzeichnis
  • Für 7 Tage
  • Wassertemperatur
  • Satellitenkarten
  • Wetterkarte
  • Widgets
  • user-avatar
    Anmelden

    Stündliche Wetter Algier

    Heute, 21 Juni, Donnerstag

    Zeit Temperatur Niederschläge Wind Luftdruck Luftfeuchtigkeit
    00:00 +24°C° 0 mm 3 m/S 749 mmHg 74%
    01:00 +24°C° 0 mm 3 m/S 749 mmHg 74%
    02:00 +24°C° 0 mm 3 m/S 749 mmHg 74%
    03:00 +24°C° 0 mm 3 m/S 749 mmHg 74%
    04:00 +25°C° 0 mm 3 m/S 749 mmHg 70%
    05:00 +25°C° 0 mm 4 m/S 749 mmHg 67%
    06:00 +26°C° 0 mm 3 m/S 749 mmHg 64%
    07:00 +28°C° 0 mm 4 m/S 749 mmHg 57%
    08:00 +29°C° 0 mm 4 m/S 749 mmHg 51%
    09:00 +32°C° 0 mm 4 m/S 749 mmHg 45%
    10:00 +33°C° 0 mm 4 m/S 749 mmHg 43%
    11:00 +33°C° 0 mm 5 m/S 749 mmHg 42%
    12:00 +34°C° 0 mm 5 m/S 749 mmHg 41%
    13:00 +34°C° 0 mm 5 m/S 748 mmHg 42%
    14:00 +33°C° 0 mm 5 m/S 748 mmHg 43%
    15:00 +33°C° 0 mm 5 m/S 748 mmHg 45%
    16:00 +32°C° 0 mm 5 m/S 748 mmHg 48%
    17:00 +30°C° 0 mm 4 m/S 748 mmHg 52%
    18:00 +29°C° 0 mm 4 m/S 748 mmHg 56%
    19:00 +27°C° 0 mm 3 m/S 748 mmHg 62%
    20:00 +26°C° 0 mm 3 m/S 749 mmHg 68%
    21:00 +25°C° 0 mm 2 m/S 749 mmHg 74%
    22:00 +24°C° 0 mm 2 m/S 749 mmHg 75%
    23:00 +24°C° 0 mm 2 m/S 749 mmHg 77%

    Morgen, 22 Juni, Freitag

    Zeit Temperatur Niederschläge Wind Luftdruck Luftfeuchtigkeit
    00:00 +24°C° 0 mm 2 m/S 749 mmHg 78%
    01:00 +23°C° 0 mm 2 m/S 749 mmHg 78%
    02:00 +23°C° 0 mm 2 m/S 748 mmHg 77%
    03:00 +23°C° 0 mm 2 m/S 748 mmHg 76%
    04:00 +23°C° 0 mm 2 m/S 748 mmHg 72%
    05:00 +24°C° 0 mm 2 m/S 748 mmHg 69%
    06:00 +25°C° 0 mm 2 m/S 749 mmHg 65%
    07:00 +26°C° 0 mm 2 m/S 749 mmHg 58%
    08:00 +28°C° 0 mm 3 m/S 749 mmHg 52%
    09:00 +30°C° 0 mm 3 m/S 749 mmHg 45%
    10:00 +32°C° 0 mm 4 m/S 749 mmHg 42%
    11:00 +33°C° 0 mm 4 m/S 749 mmHg 40%
    12:00 +34°C° 0 mm 4 m/S 749 mmHg 37%
    13:00 +34°C° 0 mm 5 m/S 749 mmHg 38%
    14:00 +34°C° 0 mm 5 m/S 748 mmHg 38%
    15:00 +34°C° 0 mm 5 m/S 748 mmHg 39%
    16:00 +33°C° 0 mm 5 m/S 748 mmHg 43%
    17:00 +32°C° 0 mm 5 m/S 748 mmHg 46%
    18:00 +30°C° 0 mm 5 m/S 748 mmHg 50%
    19:00 +29°C° 0 mm 5 m/S 748 mmHg 55%
    20:00 +27°C° 0 mm 5 m/S 749 mmHg 61%
    21:00 +26°C° 0 mm 4 m/S 749 mmHg 66%
    22:00 +26°C° 0 mm 4 m/S 749 mmHg 66%
    23:00 +26°C° 0 mm 4 m/S 749 mmHg 66%

    übermorgen, 23 Juni, Samstag

    Zeit Temperatur Niederschläge Wind Luftdruck Luftfeuchtigkeit
    00:00 +25°C° 0 mm 4 m/S 749 mmHg 66%
    01:00 +25°C° 0 mm 4 m/S 749 mmHg 65%
    02:00 +25°C° 0 mm 4 m/S 749 mmHg 64%
    03:00 +25°C° 0 mm 3 m/S 748 mmHg 63%
    04:00 +26°C° 0 mm 4 m/S 749 mmHg 59%
    05:00 +27°C° 0 mm 4 m/S 749 mmHg 56%
    06:00 +27°C° 0 mm 4 m/S 749 mmHg 53%
    07:00 +29°C° 0 mm 4 m/S 749 mmHg 46%
    08:00 +32°C° 0 mm 4 m/S 749 mmHg 39%
    09:00 +34°C° 0 mm 5 m/S 749 mmHg 32%
    10:00 +35°C° 0 mm 5 m/S 749 mmHg 31%
    11:00 +36°C° 0 mm 6 m/S 749 mmHg 29%
    12:00 +38°C° 0 mm 7 m/S 749 mmHg 27%
    13:00 +38°C° 0 mm 7 m/S 749 mmHg 28%
    14:00 +38°C° 0 mm 7 m/S 749 mmHg 30%
    15:00 +36°C° 0 mm 7 m/S 748 mmHg 31%
    16:00 +35°C° 0 mm 7 m/S 748 mmHg 35%
    17:00 +34°C° 0 mm 7 m/S 748 mmHg 39%
    18:00 +32°C° 0 mm 7 m/S 748 mmHg 43%
    19:00 +30°C° 0 mm 6 m/S 748 mmHg 48%
    20:00 +29°C° 0 mm 5 m/S 749 mmHg 53%
    21:00 +27°C° 0 mm 5 m/S 749 mmHg 58%
    22:00 +27°C° 0 mm 5 m/S 749 mmHg 58%
    23:00 +27°C° 0 mm 4 m/S 749 mmHg 58%

    24 Juni, Sonntag

    Zeit Temperatur Niederschläge Wind Luftdruck Luftfeuchtigkeit
    00:00 +26°C° 0 mm 4 m/S 748 mmHg 57%
    01:00 +26°C° 0 mm 4 m/S 748 mmHg 56%
    02:00 +26°C° 0 mm 4 m/S 748 mmHg 54%
    03:00 +26°C° 0 mm 4 m/S 748 mmHg 52%
    04:00 +27°C° 0 mm 4 m/S 748 mmHg 50%
    05:00 +28°C° 0 mm 4 m/S 748 mmHg 48%
    06:00 +28°C° 0 mm 4 m/S 748 mmHg 46%
    07:00 +30°C° 0 mm 4 m/S 748 mmHg 41%
    08:00 +33°C° 0 mm 4 m/S 748 mmHg 36%
    09:00 +35°C° 0 mm 5 m/S 748 mmHg 31%
    10:00 +36°C° 0 mm 5 m/S 748 mmHg 30%
    11:00 +37°C° 0 mm 5 m/S 748 mmHg 30%
    12:00 +39°C° 0 mm 6 m/S 748 mmHg 29%
    13:00 +39°C° 0 mm 6 m/S 747 mmHg 30%
    14:00 +38°C° 0 mm 6 m/S 747 mmHg 32%
    15:00 +38°C° 0 mm 6 m/S 746 mmHg 33%
    16:00 +36°C° 0 mm 6 m/S 746 mmHg 37%
    17:00 +35°C° 0 mm 6 m/S 746 mmHg 40%
    18:00 +34°C° 0 mm 5 m/S 746 mmHg 44%
    19:00 +32°C° 0 mm 5 m/S 746 mmHg 48%
    20:00 +30°C° 0 mm 4 m/S 746 mmHg 53%
    21:00 +29°C° 0 mm 4 m/S 747 mmHg 58%
    22:00 +28°C° 0 mm 4 m/S 746 mmHg 56%
    23:00 +28°C° 0 mm 4 m/S 746 mmHg 53%

    25 Juni, Montag

    Zeit Temperatur Niederschläge Wind Luftdruck Luftfeuchtigkeit
    00:00 +28°C° 0 mm 4 m/S 746 mmHg 51%
    01:00 +28°C° 0 mm 3 m/S 746 mmHg 51%
    02:00 +28°C° 0 mm 3 m/S 746 mmHg 50%
    03:00 +27°C° 0 mm 3 m/S 746 mmHg 49%
    04:00 +28°C° 0 mm 3 m/S 746 mmHg 48%
    05:00 +28°C° 0 mm 3 m/S 746 mmHg 48%
    06:00 +29°C° 0 mm 3 m/S 747 mmHg 47%
    07:00 +30°C° 0 mm 3 m/S 747 mmHg 45%
    08:00 +32°C° 0 mm 4 m/S 747 mmHg 42%
    09:00 +34°C° 0 mm 4 m/S 747 mmHg 39%
    10:00 +34°C° 0 mm 4 m/S 747 mmHg 39%
    11:00 +35°C° 0 mm 5 m/S 747 mmHg 38%
    12:00 +35°C° 0 mm 5 m/S 747 mmHg 37%
    13:00 +35°C° 0 mm 5 m/S 747 mmHg 37%
    14:00 +35°C° 0 mm 5 m/S 747 mmHg 37%
    15:00 +35°C° 0 mm 5 m/S 747 mmHg 37%
    16:00 +34°C° 0 mm 5 m/S 747 mmHg 39%
    17:00 +33°C° 0 mm 5 m/S 747 mmHg 42%
    18:00 +32°C° 0 mm 5 m/S 747 mmHg 45%
    19:00 +30°C° 0 mm 4 m/S 747 mmHg 50%
    20:00 +28°C° 0 mm 4 m/S 748 mmHg 55%
    21:00 +27°C° 0 mm 3 m/S 748 mmHg 61%
    22:00 +26°C° 0 mm 3 m/S 748 mmHg 62%
    23:00 +26°C° 0 mm 3 m/S 748 mmHg 64%

    26 Juni, Dienstag

    Zeit Temperatur Niederschläge Wind Luftdruck Luftfeuchtigkeit
    00:00 +25°C° 0 mm 3 m/S 748 mmHg 65%
    01:00 +25°C° 0 mm 3 m/S 748 mmHg 65%
    02:00 +25°C° 0 mm 3 m/S 748 mmHg 65%
    03:00 +25°C° 0 mm 3 m/S 747 mmHg 65%
    04:00 +25°C° 0 mm 3 m/S 748 mmHg 62%
    05:00 +26°C° 0 mm 3 m/S 748 mmHg 59%
    06:00 +26°C° 0 mm 3 m/S 748 mmHg 56%
    07:00 +28°C° 0 mm 4 m/S 748 mmHg 49%
    08:00 +30°C° 0 mm 4 m/S 748 mmHg 43%
    09:00 +33°C° 0 mm 4 m/S 748 mmHg 37%
    10:00 +33°C° 0 mm 5 m/S 748 mmHg 35%
    11:00 +34°C° 0 mm 5 m/S 748 mmHg 34%
    12:00 +35°C° 0 mm 6 m/S 748 mmHg 32%
    13:00 +35°C° 0 mm 6 m/S 748 mmHg 33%
    14:00 +35°C° 0 mm 6 m/S 748 mmHg 33%
    15:00 +35°C° 0 mm 6 m/S 747 mmHg 34%
    16:00 +34°C° 0 mm 6 m/S 747 mmHg 37%
    17:00 +33°C° 0 mm 6 m/S 747 mmHg 40%
    18:00 +32°C° 0 mm 6 m/S 747 mmHg 43%
    19:00 +30°C° 0 mm 6 m/S 748 mmHg 47%
    20:00 +29°C° 0 mm 5 m/S 748 mmHg 52%
    21:00 +27°C° 0 mm 5 m/S 748 mmHg 56%
    22:00 +27°C° 0 mm 5 m/S 748 mmHg 57%
    23:00 +27°C° 0 mm 5 m/S 748 mmHg 58%
    Mehr zeigen